SCP
0 0 0 0 0 0 0 0 0 0 0 0 0 0 0 0 0 0 0 0 0 0 0 0 0 0 0 0 0 0 0 0 0 0 0 0 0 0
0 0 0 0 0 0 0 0 0 0 0 0 0 0 0 0 0 0 0 0 0 0 0 0 0 0 0 0 0 0 0 0 0 0 0 0 0 0
0 0 0 0 0 0 0 0 0 0 0 0 0 0 0 0 0 0 0 0 0 0 0 0 0 0 0 0 0 0 0 0 0 0 0 0 0 0
0 0 0 0 0 0 0 0 0 0 0 0 0 0 0 0 0 0 0 0 0 0 0 0 0 0 0 0 0 0 0 0 0 0 0 0 0 0
0 0 0 0 0 0 0 0 0 0 0 0 0 0 0 0 0 0 0 0 0 0 0 0 0 0 0 0 0 0 0 0 0 0 0 0 0 0
0 0 0 0 0 0 0 0 0 0 0 0 0 0 0 0 0 0 0 0 0 0 0 0 0 0 0 0 0 0 0 0 0 0 0 0 0 0
0 0 0 0 0 0 0 0 0 0 0 0 0 0 0 0 0 0 0 0 0 0 0 0 0 0 0 0 0 0 0 0 0 0 0 0 0 0
0 0 0 0 0 0 0 0 0 0 0 0 0 0 0 0 0 0 0 0 0 0 0 0 0 0 0 0 0 0 0 0 0 0 0 0 0 0
0 0 0 0 0 0 0 0 0 0 0 0 0 0 0 0 0 0 0 0 0 0 0 0 0 0 0 0 0 0 0 0 0 0 0 0 0 0
0 0 0 0 0 0 0 0 0 0 0 0 0 0 0 0 0 0 0 0 0 0 0 0 0 0 0 0 0 0 0 0 0 0 0 0 0 0
1 0 0 0 0 0 0 0 0 0 0 0 0 0 0 0 0 0 0 0 0 0 0 0 0 0 0 0 0 0 0 0 0 0 0 0 0 0
1 0 0 0 0 0 0 0 0 0 0 0 0 0 0 0 0 0 0 0 0 0 0 0 0 0 0 0 0 0 0 0 0 0 0 0 0 0
0 0 0 0 0 0 0 0 0 0 0 0 0 0 0 0 0 0 0 0 0 0 0 0 0 0 0 0 0 0 0 0 0 0 0 0 0 0
0 0 0 0 0 0 0 0 0 0 0 0 0 0 0 0 0 0 0 0 0 0 0 0 0 0 0 0 0 0 0 0 0 0 0 0 0 0
0 0 0 0 0 0 0 0 0 0 0 0 0 0 0 0 0 0 0 0 0 0 0 0 0 0 0 0 0 0 0 0 0 0 0 0 0 0
0 0 0 0 0 0 0 0 0 0 0 0 0 0 0 0 0 0 0 0 0 0 0 0 0 0 0 0 0 0 0 0 0 0 0 0 0 0
0 0 0 0 0 0 0 0 0 0 0 0 0 0 0 0 0 0 0 0 0 0 0 0 0 0 0 0 0 0 0 0 0 0 0 0 0 0
0 0 0 0 0 0 0 0 0 0 0 0 0 0 0 0 0 0 0 0 0 0 0 0 0 0 0 0 0 0 0 0 0 0 0 0 0 0
0 0 0 0 0 0 0 0 0 0 0 0 0 0 0 0 0 0 0 0 0 0 0 0 0 0 0 0 0 0 0 0 0 0 0 0 0 0
0 0 0 0 0 0 0 0 0 0 0 0 0 0 0 0 0 0 0 0 0 0 0 0 0 0 0 0 0 0 0 0 0 0 0 0 0 0
0 0 0 0 0 0 0 0 0 0 0 0 0 0 0 0 0 0 0 0 0 0 0 0 0 0 0 0 0 0 0 0 0 0 0 0 0 0
0 0 0 0 0 0 0 0 0 0 0 0 0 0 0 0 0 0 0 0 0 0 0 0 0 0 0 0 0 0 0 0 0 0 0 0 0 0
0 0 0 0 0 0 0 0 0 0 0 0 0 0 0 0 0 0 0 0 0 0 0 0 0 0 0 0 0 0 0 0 0 0 0 0 0 0
Wind_Speed
2 2 1 1 1 1 1 1 1 1 2 2 1 2 2 2 5 4 3 7 8 8 7 7 6 6 6 5 5 5 4 5 5 5 5 6 6 7
3 2 2 2 1 1 1 1 1 1 2 1 1 2 2 3 5 3 3 6 8 9 9 8 8 7 7 6 6 6 6 5 5 5 5 6 6 6
3 3 3 2 1 1 1 1 1 1 1 1 0 1 2 2 3 2 3 4 5 9 10 10 9 9 8 8 7 7 6 6 6 6 6 6 6 5
3 3 3 3 2 1 1 2 1 1 1 2 1 1 2 3 4 3 3 4 3 7 11 11 11 10 10 9 8 8 8 7 7 6 6 6 6 6
3 3 3 3 3 2 2 2 2 2 1 1 2 1 2 2 3 3 3 2 4 5 8 11 11 11 10 10 10 9 9 8 8 7 7 7 7 6
3 3 4 4 4 3 2 2 2 2 2 2 2 2 2 2 2 2 2 2 3 3 4 6 9 11 12 11 11 11 10 10 9 9 8 7 7 7
3 4 3 4 4 3 3 2 2 1 2 2 2 2 1 1 2 2 2 2 3 3 2 3 4 5 7 10 11 12 11 11 10 10 9 8 8 8
4 3 4 4 5 6 5 4 3 3 3 2 2 2 2 2 2 2 2 2 2 2 2 3 3 4 5 5 10 13 13 12 11 11 10 10 9 9
4 4 4 4 5 4 5 6 5 6 6 3 3 3 3 2 2 3 2 3 3 2 2 4 3 3 4 6 11 13 13 13 12 12 11 11 10 10
4 4 4 3 4 3 4 5 4 4 5 5 4 4 4 2 2 3 3 3 3 3 3 4 3 4 4 3 9 12 13 14 13 13 12 11 11 10
5 4 4 4 4 4 4 4 4 4 5 6 6 6 6 5 4 2 3 3 4 4 3 3 3 3 3 3 6 12 13 13 13 13 12 12 11 9
3 4 5 4 4 6 5 4 5 4 4 4 4 5 6 7 8 6 5 4 4 4 3 3 3 2 3 2 2 4 6 9 12 12 12 12 10 6
3 2 3 4 5 6 6 5 6 5 4 4 4 5 5 5 6 6 6 5 5 4 2 2 2 2 2 2 2 3 4 4 5 6 10 12 11 9
3 2 2 4 5 6 7 7 7 5 4 4 4 5 5 5 5 5 6 6 6 6 4 3 2 3 3 3 3 2 3 4 4 4 5 8 10 11
3 4 4 5 6 6 9 9 7 5 5 5 6 5 5 5 4 4 5 6 6 6 6 5 4 4 3 4 3 2 2 3 4 4 4 4 4 4
4 4 5 7 6 7 6 6 6 6 6 6 5 5 4 4 4 4 4 4 4 5 6 6 6 5 4 4 4 4 3 3 2 3 3 3 3 4
2 3 4 3 4 4 5 5 6 6 6 6 5 5 4 4 4 4 4 4 4 5 4 4 5 5 6 4 4 4 3 3 3 2 2 3 2 3
3 4 5 4 5 5 5 5 5 6 6 6 5 5 4 4 4 4 3 4 4 4 4 4 3 3 3 3 4 5 4 3 3 2 2 3 3 2
4 6 5 5 5 5 5 5 5 5 5 5 5 5 5 5 4 4 4 4 4 4 4 4 4 4 4 4 4 5 4 3 2 2 2 2 2 2
5 5 5 5 4 4 5 5 4 4 4 5 5 4 4 4 4 4 4 4 4 4 4 3 3 4 4 4 2 2 5 4 3 3 2 1 1 1
5 5 5 5 4 4 4 4 4 3 3 2 3 3 4 4 4 4 4 5 4 4 4 4 4 5 3 1 2 2 2 4 4 3 3 2 2 2
4 4 4 4 4 4 4 3 4 3 3 2 2 3 3 3 4 4 4 3 4 4 4 2 2 3 3 3 3 3 2 2 3 4 4 4 3 3
4 4 4 3 3 3 3 4 3 2 2 2 2 2 2 2 2 3 3 3 3 3 3 3 2 2 3 3 3 3 3 3 2 2 2 5 7 7
Wind_Direction
232 229 269 282 265 278 277 209 193 229 235 219 177 160 154 139 156 168 166 182 186 193 203 211 217 220 219 218 220 220 221 226 232 237 239 242 244 240
214 208 234 272 279 286 281 281 265 248 255 227 203 166 162 171 164 167 171 186 199 203 207 210 212 217 219 218 219 220 221 223 226 231 237 239 241 243
217 201 203 244 265 268 275 276 260 254 254 270 230 171 171 168 162 188 186 188 201 210 208 208 209 212 216 218 219 218 219 222 227 231 235 237 240 241
211 203 203 221 228 278 280 278 283 268 226 241 235 229 205 178 179 202 211 208 212 213 208 207 207 212 216 218 218 218 218 220 226 231 234 238 241 242
213 215 213 210 211 230 253 257 257 266 248 237 240 222 208 209 196 217 228 226 235 219 207 207 210 215 218 219 219 220 220 222 226 230 233 235 238 241
222 222 217 204 205 218 235 247 253 257 255 244 234 227 217 208 194 209 233 230 241 237 210 207 212 217 221 219 219 221 221 222 224 226 230 232 235 239
231 229 221 198 186 201 230 231 241 243 254 249 239 244 231 208 220 225 234 238 243 233 211 214 207 215 220 223 223 223 221 222 224 225 227 229 232 237
234 234 214 198 197 198 213 216 217 226 235 245 253 252 255 250 243 254 253 247 254 232 223 242 212 215 216 211 213 215 218 220 223 225 225 228 231 234
236 230 239 220 197 204 214 220 223 228 222 224 243 251 249 242 247 265 266 263 263 248 247 256 242 233 227 219 206 209 212 215 219 223 225 227 231 233
238 235 231 226 223 205 216 216 220 225 223 219 227 244 249 245 240 251 260 263 266 252 224 248 254 250 244 214 205 206 208 213 218 222 225 228 232 234
239 240 230 221 211 199 216 222 222 234 239 231 226 235 239 240 236 246 255 251 261 255 224 229 248 258 246 224 213 211 211 214 218 222 224 228 231 232
237 233 228 221 204 199 212 222 232 237 242 245 246 250 240 239 232 222 231 245 255 258 228 221 247 252 262 237 208 200 216 223 223 227 228 229 225 220
250 230 221 200 207 213 219 226 233 242 247 241 237 235 233 230 224 219 219 224 240 254 252 229 254 264 257 266 240 207 206 208 206 225 228 228 221 210
264 259 239 207 224 234 232 233 236 244 247 243 238 234 231 231 228 224 220 219 222 236 254 250 251 252 264 271 268 241 222 211 201 208 208 213 220 221
276 282 266 249 241 240 235 232 229 231 235 241 240 236 230 228 229 226 221 221 231 238 241 235 234 242 244 253 263 262 255 236 212 210 206 196 197 200
273 282 266 251 245 244 239 228 221 226 227 236 240 241 235 229 227 224 221 214 223 237 234 228 228 232 242 249 250 258 252 248 235 223 213 210 205 198
263 264 264 250 235 232 230 224 222 221 228 232 238 243 239 232 228 222 221 219 222 232 234 224 223 225 228 233 248 248 248 250 242 225 232 238 225 199
234 251 254 250 247 246 246 237 223 221 224 225 227 229 232 235 232 226 224 228 234 235 234 222 213 225 241 244 227 241 246 238 238 232 241 242 235 215
234 250 252 249 247 248 248 247 243 231 221 222 226 226 227 233 232 228 228 232 235 236 235 224 210 210 229 243 245 222 230 238 231 239 240 235 233 220
240 248 254 256 252 251 253 252 251 250 236 226 222 222 227 233 235 233 230 231 236 240 242 232 216 210 220 234 245 245 221 222 221 234 248 248 248 216
261 261 260 263 264 260 257 254 252 250 250 242 235 229 228 232 236 236 238 238 233 236 237 229 225 210 207 202 252 254 236 230 222 211 217 226 242 236
268 269 269 272 273 269 265 260 252 248 244 241 246 242 236 236 238 240 239 236 232 239 246 240 222 204 202 211 230 241 242 233 236 236 242 223 208 216
263 270 271 270 268 271 273 269 265 261 258 253 251 251 253 244 244 242 243 237 230 234 240 244 238 228 225 217 219 226 237 237 226 209 254 248 229 234